Regional Weather Roundup
Issued by NWS

Home | Current Version | Previous Version | Text Only | Print | Product List | Glossary On
Versions: 1 2 3 4 5 6 7 8 9 10 11 12 13 14 15 16 17 18 19 20 21 22 23 24 25 26 27 28 29 30 31 32 33 34 35 36 37 38 39 40 41 42 43 44 45 46 47 48 49 50
000
ASUS43 KTOP 200859
RWRKS

WEATHER ROUNDUP FOR KANSAS
NATIONAL WEATHER SERVICE GOODLAND KS
300 AM CST SAT JAN 20 2018

NOTE:  "FAIR" INDICATES FEW OR NO CLOUDS BELOW 12,000 FEET WITH NO
SIGNIFICANT WEATHER AND/OR OBSTRUCTIONS TO VISIBILITY.

KSZ001>006-013>018-027>032-041>047-201000-
NORTHWEST KANSAS

CITY           SKY/WX    TMP DP  RH WIND       PRES   REMARKS
GOODLAND       MOCLDY    28  20  71 NW7       29.74R
HAYS           CLOUDY    30  17  58 CALM      29.72R
HILL CITY      CLOUDY    27  20  75 N9        29.72R
RUSSELL        CLOUDY    33  22  63 S9        29.71R
$$

KSZ061>065-074>080-084>089-201000-
SOUTHWEST KANSAS

CITY           SKY/WX    TMP DP  RH WIND       PRES   REMARKS
DODGE CITY     CLOUDY    35  16  45 S9        29.70R
GARDEN CITY    CLOUDY   N/A N/A N/A NW8       29.70R
GREAT BEND     CLOUDY    32  22  66 S6        29.73R
LIBERAL        CLOUDY    29  15  56 SW6       29.71S
$$

KSZ066>073-081>083-090>101-201000-
SOUTHEAST KANSAS

CITY           SKY/WX    TMP DP  RH WIND       PRES   REMARKS
CHANUTE          N/A    N/A N/A N/A MISG      29.89S
COFFEYVILLE    CLOUDY    47  41  80 S15       29.91S
HUTCHINSON     CLOUDY    40  38  93 S13       29.77S WCI  32
MEDICINE LODGE   N/A     39  37  92 SE10      29.75F WCI  32
NEWTON         CLOUDY    44  42  93 S23G29    29.80R
PARSONS        CLOUDY    44  41  89 S9        29.91S
WICHITA INTL   CLOUDY    46  43  89 S15       29.79F
WICHITA JABRA  CLOUDY    46  44  93 S20G26    29.80S
WICHITA MCCONL CLOUDY    46  43  88 S18       29.81S
WINFIELD       CLOUDY    48  46  93 S16       29.84S
$$

KSZ007>012-019>026-033>040-048>060-102>105-201000-
NORTHEAST KANSAS

CITY           SKY/WX    TMP DP  RH WIND       PRES   REMARKS
CONCORDIA      CLOUDY    31  24  75 SE6       29.76R
EMPORIA        CLOUDY    42  38  85 S16G25    29.83R
LAWRENCE       PTCLDY    41  37  86 SE7       29.85R
MANHATTAN      CLOUDY    38  33  82 SW7       29.79R
OLATHE IND     CLOUDY    40  38  93 S13       29.86S WCI  32
OLATHE EXE     PTCLDY    40  37  89 S13       29.86S WCI  32
SALINA         CLOUDY    42  36  79 S15G22    29.76R
TOPEKA BILLARD CLOUDY    41  36  82 S7        29.84R
TOPEKA FORBES  CLOUDY    42  37  82 S14       29.82R
$$




USA.gov is the U.S. government's official web portal to all federal, state and local government web resources and services.